Location: Newark
(34.3481°N, 134.0494°E)
Time: 05:30:41
(UTC+00:00)

Vanguard 1 - All Passes

Search period start: 27 January 2020 00:00
Search period end: 06 February 2020 00:00
Orbit: 650 x 3833 km, 34.2° (Epoch: 26 January)

Date Brightness Start Highest point End Pass type
(mag) Time Alt. Az. Time Alt. Az. Time Alt. Az.
27 Jan - 04:43:58 10° SSW 04:47:59 17° SSE 04:51:12 10° ESE daylight
27 Jan - 07:03:11 10° WSW 07:07:58 58° SSE 07:12:22 10° E daylight
27 Jan - 09:23:25 10° W 09:27:51 89° S 09:33:49 10° E visible
27 Jan - 11:42:54 10° W 11:48:10 49° SSW 11:56:58 10° SE visible
27 Jan - 14:03:57 10° WSW 14:09:45 21° SSW 14:18:10 10° SSE night (unlit)
28 Jan - 05:03:48 10° SSW 05:08:58 25° SSE 05:12:53 10° E daylight
28 Jan - 07:24:08 10° WSW 07:28:52 74° SSE 07:33:24 10° E daylight
28 Jan - 09:44:21 10° W 09:48:50 81° S 09:55:03 10° ESE visible
28 Jan - 12:03:58 10° W 12:09:14 38° SSW 12:17:45 10° SE visible
28 Jan - 14:26:45 10° SW 14:31:06 14° SSW 14:36:37 10° S night (unlit)
29 Jan - 03:07:36 10° SSE 03:09:05 11° SSE 03:10:26 10° SE daylight
29 Jan - 05:24:13 10° SW 05:29:56 35° SSE 05:34:09 10° E daylight
29 Jan - 07:45:09 10° W 07:49:49 86° S 07:54:27 10° E daylight
29 Jan - 10:05:16 10° W 10:09:47 69° SSW 10:16:14 10° ESE visible
29 Jan - 12:25:13 10° W 12:30:20 28° SSW 12:38:11 10° SSE visible
30 Jan - 03:25:13 10° SSW 03:30:17 17° SSE 03:34:06 10° ESE daylight
30 Jan - 05:44:57 10° SW 05:50:52 48° SSE 05:55:14 10° E daylight
30 Jan - 08:06:12 10° W 08:10:45 90° NW 08:15:31 10° E daylight
30 Jan - 10:26:13 10° W 10:30:44 54° SSW 10:37:18 10° ESE visible
30 Jan - 12:46:49 10° WSW 12:51:29 20° SSW 12:58:04 10° SSE visible
31 Jan - 03:44:48 10° SSW 03:51:24 24° SSE 03:55:58 10° ESE daylight
31 Jan - 06:05:54 10° WSW 06:11:49 64° SSE 06:16:12 10° E daylight
31 Jan - 08:27:14 10° W 08:31:44 87° S 08:36:36 10° E daylight
31 Jan - 10:47:13 10° W 10:51:41 40° SSW 10:58:09 10° SE visible
31 Jan - 13:09:16 10° SW 13:12:42 14° SSW 13:16:58 10° S night (unlit)
01 Feb - 01:48:25 10° SSE 01:50:48 11° SSE 01:52:56 10° SE daylight
01 Feb - 04:05:02 10° SW 04:12:29 33° SSE 04:17:20 10° E daylight
01 Feb - 06:27:01 10° WSW 06:32:44 78° S 06:37:09 10° E daylight
01 Feb - 08:48:14 10° W 08:52:40 77° S 08:57:41 10° ESE visible
01 Feb - 11:08:23 10° W 11:12:41 29° SSW 11:18:43 10° SE visible
02 Feb - 02:05:36 10° S 02:12:07 17° SSE 02:16:56 10° ESE daylight
02 Feb - 04:25:42 10° SW 04:33:31 44° SSE 04:38:27 10° E daylight
02 Feb - 06:48:11 10° W 06:53:42 88° S 06:58:06 10° E daylight
02 Feb - 09:09:14 10° W 09:13:35 62° SSW 09:18:41 10° ESE visible
02 Feb - 11:29:51 10° WSW 11:33:42 21° SSW 11:38:49 10° SSE visible
03 Feb - 02:24:51 10° SSW 02:33:23 24° SSE 02:39:02 10° ESE daylight
03 Feb - 04:46:39 10° WSW 04:54:31 57° SSE 04:59:26 10° E daylight
03 Feb - 07:09:22 10° W 07:14:40 90° NNE 07:19:04 10° E daylight
03 Feb - 09:30:15 10° W 09:34:29 46° SSW 09:39:34 10° SE visible
03 Feb - 11:52:01 10° SW 11:54:46 14° SSW 11:58:03 10° S visible
04 Feb - 00:29:06 10° SSE 00:31:58 11° SSE 00:34:32 10° SE daylight
04 Feb - 02:44:53 10° SW 02:54:35 32° SSE 03:00:33 10° E daylight
04 Feb - 05:07:48 10° WSW 05:15:30 71° SSE 05:20:21 10° E daylight
04 Feb - 07:30:31 10° W 07:35:37 86° S 07:40:02 10° E daylight
04 Feb - 09:51:23 10° W 09:55:22 33° SSW 10:00:13 10° SE visible
05 Feb - 00:45:23 10° S 00:53:24 17° SSE 00:59:21 10° ESE daylight
05 Feb - 03:05:24 10° SW 03:15:44 42° SSE 03:21:45 10° E daylight
05 Feb - 05:29:06 10° WSW 05:36:29 82° S 05:41:14 10° E daylight
05 Feb - 07:51:37 10° W 07:56:33 74° SSW 08:00:59 10° ESE daylight
05 Feb - 10:12:44 10° WSW 10:16:15 22° SSW 10:20:30 10° SSE visible
